Weather History for LPPR - January, 2014

Change the Weather History Date:

Tuesday, January 28, 2014

  Actual Average Record
Temperature  
Mean Temperature 52 °F -  
Max Temperature 57 °F 57 °F 68 °F (2002)
Min Temperature 48 °F 41 °F 32 °F (2005)
Degree Days  
Heating Degree Days 12    
Growing Degree Days 2 (Base 50)    
Moisture  
Dew Point 46 °F    
Average Humidity 82    
Maximum Humidity 100    
Minimum Humidity 67    
Precipitation  
Precipitation 0.00 in - - ()
Sea Level Pressure  
Sea Level Pressure 29.81 in    
Wind  
Wind Speed 9 mph ()    
Max Wind Speed 17 mph    
Max Gust Speed 33 mph    
Visibility 5.4 miles    
Events Rain    
Averages and records for this station are not official NWS values.
T = Trace of Precipitation, MM = Missing Value Source: Averaged Metar Reports

Daily Weather History Graph

Daily Weather History Graph

Search for Another Location

Airport or City:

Trip Planner

Search our weather history database for the weather conditions in past years. The results will help you decide how hot, cold, wet, or windy it might be!

Date:

Astronomy

Jan. 28, 2014 Rise Set
Actual Time 7:49 AM WET 5:46 PM WET
Civil Twilight 7:20 AM WET 6:15 PM WET
Nautical Twilight 6:46 AM WET 6:48 PM WET
Astronomical Twilight 6:14 AM WET 7:21 PM WET
Moon 5:18 AM WET (1/28) 3:20 PM WET (1/28)
Length of Visible Light 10h 55m
Length of Day
9h 56m
Waning Crescent, 9% of the Moon is Illuminated
Jan 28
Waning Crescent
Jan 30
New
Feb 6
First Quarter
Feb 14
Full
Feb 22
Last Quarter

Hourly Weather History & Observations

Time (WET) Temp. Dew Point Humidity Pressure Visibility Wind Dir Wind Speed Gust Speed Precip Events Conditions
12:00 AM 50.0 °F 42.8 °F 76% 30.06 in 6.2 mi NW 10.4 mph - N/A   Mostly Cloudy
12:30 AM 50.0 °F 42.8 °F 76% 30.06 in 6.2 mi NW 8.1 mph - N/A   Mostly Cloudy
1:00 AM 50.0 °F 44.6 °F 82% 30.04 in 6.2 mi NW 5.8 mph - N/A   Mostly Cloudy
1:30 AM 50.0 °F 42.8 °F 76% 30.04 in 6.2 mi NW 10.4 mph - N/A   Mostly Cloudy
2:00 AM 48.2 °F 44.6 °F 87% 30.04 in 6.2 mi NNW 5.8 mph - N/A   Mostly Cloudy
2:30 AM 48.2 °F 44.6 °F 87% 30.01 in 5.0 mi NNW 10.4 mph - N/A Rain Light Rain Showers
3:00 AM 48.2 °F 46.4 °F 93% 30.01 in 6.2 mi NNW 4.6 mph - N/A   Mostly Cloudy
3:30 AM 48.2 °F 46.4 °F 93% 30.01 in 6.2 mi Variable 3.5 mph - N/A   Mostly Cloudy
4:00 AM 50.0 °F 44.6 °F 82% 29.98 in 6.2 mi WNW 5.8 mph - N/A   Scattered Clouds
4:30 AM 51.8 °F 44.6 °F 76% 29.98 in 6.2 mi WNW 6.9 mph - N/A   Mostly Cloudy
5:00 AM 51.8 °F 44.6 °F 76% 29.95 in 6.2 mi West 8.1 mph - N/A   Mostly Cloudy
5:30 AM 51.8 °F 42.8 °F 71% 29.95 in 6.2 mi West 9.2 mph - N/A   Mostly Cloudy
6:00 AM 51.8 °F 42.8 °F 71% 29.92 in 6.2 mi West 10.4 mph - N/A   Scattered Clouds
6:30 AM 51.8 °F 41.0 °F 67% 29.92 in 6.2 mi WSW 10.4 mph - N/A   Scattered Clouds
7:00 AM 53.6 °F 44.6 °F 72% 29.89 in 6.2 mi WSW 10.4 mph - N/A   Mostly Cloudy
7:30 AM 51.8 °F 44.6 °F 76% 29.89 in 6.2 mi WSW 11.5 mph - N/A   Mostly Cloudy
8:00 AM 50.0 °F 46.4 °F 87% 29.89 in 6.2 mi WSW 15.0 mph 26.5 mph N/A   Mostly Cloudy
8:30 AM 50.0 °F 48.2 °F 94% 29.86 in 2.2 mi WSW 13.8 mph - N/A Rain Light Rain
9:00 AM 51.8 °F 50.0 °F 94% 29.86 in 2.2 mi SW 13.8 mph 27.6 mph N/A Rain Light Rain
9:30 AM 51.8 °F 50.0 °F 94% 29.86 in 1.6 mi SW 15.0 mph - N/A Rain Light Rain
10:00 AM 51.8 °F 51.8 °F 100% 29.83 in 2.2 mi SW 16.1 mph 33.4 mph N/A Rain Light Rain
10:30 AM 53.6 °F 51.8 °F 94% 29.80 in 2.2 mi SW 17.3 mph 28.8 mph N/A Rain Light Rain
11:00 AM 53.6 °F 53.6 °F 100% 29.80 in 1.6 mi SW 17.3 mph - N/A Rain Light Rain
11:30 AM 51.8 °F 50.0 °F 94% 29.80 in 3.7 mi West 10.4 mph - N/A Rain Rain
12:00 PM 55.4 °F 51.8 °F 88% 29.80 in 6.2 mi West 10.4 mph 25.3 mph N/A Rain Light Rain Showers
12:30 PM 57.2 °F 46.4 °F 67% 29.80 in 6.2 mi WNW 12.7 mph - N/A   Scattered Clouds
1:00 PM 55.4 °F 48.2 °F 77% 29.77 in 6.2 mi WNW 12.7 mph - N/A Rain Light Rain Showers
1:30 PM 55.4 °F 48.2 °F 77% 29.77 in 6.2 mi West 13.8 mph 25.3 mph N/A   Scattered Clouds
2:00 PM 55.4 °F 46.4 °F 72% 29.77 in 6.2 mi WNW 15.0 mph - N/A   Partly Cloudy
2:30 PM 55.4 °F 44.6 °F 67% 29.74 in 6.2 mi WNW 15.0 mph - N/A Rain Light Rain Showers
3:00 PM 53.6 °F 48.2 °F 82% 29.74 in 3.7 mi West 11.5 mph - N/A Rain Light Rain Showers
3:30 PM 53.6 °F 48.2 °F 82% 29.71 in 5.6 mi West 8.1 mph - N/A   Scattered Clouds
4:00 PM 55.4 °F 46.4 °F 72% 29.71 in 5.0 mi WNW 12.7 mph - N/A   Mostly Cloudy
4:30 PM 50.0 °F 46.4 °F 87% 29.71 in 5.6 mi WNW 10.4 mph 25.3 mph N/A   Mostly Cloudy
5:00 PM 51.8 °F 44.6 °F 76% 29.71 in 6.2 mi West 8.1 mph 19.6 mph N/A   Scattered Clouds
5:30 PM 53.6 °F 42.8 °F 67% 29.68 in 5.6 mi WNW 13.8 mph - N/A   Mostly Cloudy
6:00 PM 53.6 °F 42.8 °F 67% 29.68 in 6.2 mi WNW 15.0 mph - N/A   Scattered Clouds
6:30 PM 50.0 °F 46.4 °F 87% 29.68 in 5.6 mi WNW 11.5 mph - N/A Rain Light Rain Showers
7:00 PM 50.0 °F 46.4 °F 87% 29.68 in 6.2 mi West 6.9 mph - N/A Rain Light Rain Showers
7:30 PM 48.2 °F 44.6 °F 87% 29.65 in 6.2 mi West 9.2 mph - N/A Rain Light Rain Showers
8:00 PM 51.8 °F 44.6 °F 76% 29.65 in 6.2 mi WNW 11.5 mph 24.2 mph N/A Rain Light Rain Showers
8:30 PM 50.0 °F 46.4 °F 87% 29.62 in 6.2 mi WNW 10.4 mph - N/A   Mostly Cloudy
9:00 PM 50.0 °F 46.4 °F 87% 29.62 in 5.0 mi West 10.4 mph 23.0 mph N/A Rain Light Rain Showers
9:30 PM 48.2 °F 46.4 °F 93% 29.62 in 6.2 mi West 11.5 mph - N/A   Mostly Cloudy
10:00 PM 50.0 °F 44.6 °F 82% 29.59 in 6.2 mi West 6.9 mph - N/A   Mostly Cloudy
10:30 PM 50.0 °F 44.6 °F 82% 29.56 in 6.2 mi West 10.4 mph - N/A   Mostly Cloudy
11:00 PM 51.8 °F 44.6 °F 76% 29.53 in 6.2 mi West 11.5 mph 23.0 mph N/A   Mostly Cloudy
11:30 PM 48.2 °F 46.4 °F 93% 29.53 in 3.7 mi West 11.5 mph - N/A Rain Rain Showers